Terminal Aerodrome Forecast
Issued by NWS Boston, MA

Home | Current Version | Previous Version | Text Only | Print | Product List | Glossary On
Versions: 1 2 3 4 5 6 7 8 9 10 11 12 13 14 15 16 17 18 19 20 21 22 23 24 25 26 27 28 29 30 31 32 33 34 35 36 37
000
FTUS41 KBOX 182326
TAFPVD
TAF
KPVD 182326Z 1900/1924 33006KT P6SM SCT060
     FM190500 02009KT P6SM BKN040
     FM190800 02011KT P6SM SCT050
     FM191000 02011KT P6SM SCT250
     FM191800 06009KT P6SM SKC
     FM192300 10007KT P6SM SKC=

USA.gov is the U.S. government's official web portal to all federal, state and local government web resources and services.